This is the latest recevied weather packets stored in our database for station/object N4TLC. If no packets are shown the sender has not sent any weather packets the latest 10 day(s).
| Time | Temp. | Humidity | Pressure | Rain* | Wind** | Luminosity | Snow |
|---|---|---|---|---|---|---|---|
| 1778019626 | 26.11° C | 33% | 1015.1 hPa | 0 mm | - | 250 W/m² | - |
| 1778019323 | 26.11° C | 33% | 1015.1 hPa | 0 mm | - | 238 W/m² | - |
| 1778019019 | 26.11° C | 33% | 1015.3 hPa | 0 mm | - | 284 W/m² | - |
| 1778018717 | 26.11° C | 34% | 1015.4 hPa | 0 mm | - | 337 W/m² | - |
| 1778018415 | 26.11° C | 33% | 1015.4 hPa | 0 mm | - | 351 W/m² | - |
| 1778018112 | 26.67° C | 33% | 1015.4 hPa | 0 mm | - | 141 W/m² | - |
| 1778017810 | 26.67° C | 32% | 1015.3 hPa | 0 mm | - | 410 W/m² | - |
| 1778017508 | 27.22° C | 31% | 1015.3 hPa | 0 mm | - | 352 W/m² | - |
| 1778017204 | 26.67° C | 31% | 1015.4 hPa | 0 mm | - | 429 W/m² | - |
| 1778016902 | 27.22° C | 31% | 1015.2 hPa | 0 mm | - | 459 W/m² | - |
| 1778016598 | 27.22° C | 31% | 1015.3 hPa | 0 mm | - | 476 W/m² | - |
| 1778016295 | 27.22° C | 30% | 1015.3 hPa | 0 mm | - | 505 W/m² | - |
| 1778015991 | 27.22° C | 30% | 1015.4 hPa | 0 mm | - | 544 W/m² | - |
| 1778015689 | 27.22° C | 30% | 1015.4 hPa | 0 mm | - | 625 W/m² | - |
| 1778015385 | 27.22° C | 30% | 1015.6 hPa | 0 mm | - | 377 W/m² | - |
| 1778015083 | 27.22° C | 31% | 1015.6 hPa | 0 mm | - | 523 W/m² | - |
| 1778014779 | 26.67° C | 29% | 1015.5 hPa | 0 mm | - | 467 W/m² | - |
| 1778014478 | 27.22° C | 29% | 1015.5 hPa | 0 mm | - | 620 W/m² | - |
| 1778014174 | 27.78° C | 31% | 1015.6 hPa | 0 mm | - | 637 W/m² | - |
| 1778013872 | 27.22° C | 30% | 1015.4 hPa | 0 mm | - | 656 W/m² | - |
| 1778013569 | 26.67° C | 32% | 1015.6 hPa | 0 mm | - | 676 W/m² | - |
| 1778013265 | 26.67° C | 30% | 1015.6 hPa | 0 mm | - | 676 W/m² | - |
| 1778012962 | 26.67° C | 31% | 1015.5 hPa | 0 mm | - | 708 W/m² | - |
| 1778012658 | 26.67° C | 30% | 1015.7 hPa | 0 mm | - | 748 W/m² | - |
| 1778012355 | 26.67° C | 30% | 1015.8 hPa | 0 mm | - | 644 W/m² | - |
* Rain latest hour (hover to see other rain measurements)
** Current wind speed in m/s (hover to see current wind gust speed)